Louisville, KY

5:34 AM EST on February 09, 2016 (GMT -0500)
Bowman

Weather History for KLOU - September, 2013

Change the Weather History Date:

Sunday, September 1, 2013

  Actual Average Record
Temperature  
Mean Temperature 78 °F 75 °F  
Max Temperature 87 °F 85 °F 103 °F (1953)
Min Temperature 69 °F 66 °F 50 °F (1987)
Degree Days  
Heating Degree Days 0 0  
Month to date heating degree days 0 0  
Since 1 July heating degree days 0 0  
Cooling Degree Days 13 10  
Month to date cooling degree days 13 10  
Year to date cooling degree days 1216 1249  
Growing Degree Days 28 (Base 50)    
Moisture  
Dew Point 69 °F    
Average Humidity 79    
Maximum Humidity 100    
Minimum Humidity 57    
Precipitation  
Precipitation 0.28 in 0.11 in 2.95 in (1965)
Month to date precipitation 0.28 0.11  
Year to date precipitation 37.34 31.65  
Sea Level Pressure  
Sea Level Pressure 29.82 in    
Wind  
Wind Speed 6 mph (SSW)    
Max Wind Speed 15 mph    
Max Gust Speed 22 mph    
Visibility 9 miles    
Events Rain , Thunderstorm    
T = Trace of Precipitation, MM = Missing Value Source: NWS Daily Summary

Daily Weather History Graph

Daily Weather History Graph

Search for Another Location

Airport or City:

Trip Planner

Search our weather history database for the weather conditions in past years. The results will help you decide how hot, cold, wet, or windy it might be!

Date:

Astronomy

Sep. 01, 2013 Rise Set
Actual Time 7:12 AM EDT 8:11 PM EDT
Civil Twilight 6:45 AM EDT 8:38 PM EDT
Nautical Twilight 6:13 AM EDT 9:10 PM EDT
Astronomical Twilight 5:39 AM EDT 9:44 PM EDT
Moon 3:35 AM EDT (9/1) 5:47 PM EDT (9/1)
Length of Visible Light 13h 53m
Length of Day
12h 59m
Waning Crescent, 14% of the Moon is Illuminated
Sep 1
Waning Crescent
Sep 5
New
Sep 12
First Quarter
Sep 19
Full
Sep 26
Last Quarter

Hourly Weather History & Observations

Time (EDT) Temp. Heat Index Dew Point Humidity Pressure Visibility Wind Dir Wind Speed Gust Speed Precip Events Conditions
12:03 AM 71.6 °F - 68.0 °F 88% 29.90 in 10.0 mi SSW 5.8 mph - 0.00 in Rain Light Rain
12:53 AM 70.0 °F - 68.0 °F 93% 29.86 in 10.0 mi South 9.2 mph 17.3 mph 0.05 in Rain Light Rain
1:09 AM 69.8 °F - 68.0 °F 94% 29.87 in 10.0 mi South 10.4 mph - 0.02 in Rain , Thunderstorm Light Rain
1:39 AM 69.8 °F - 68.0 °F 94% 29.85 in 7.0 mi South 11.5 mph - 0.09 in Rain Rain
1:53 AM 70.0 °F - 66.9 °F 90% 29.83 in 10.0 mi South 8.1 mph 16.1 mph 0.10 in Rain , Thunderstorm Light Rain
2:11 AM 69.8 °F - 68.0 °F 94% 29.85 in 10.0 mi SW 6.9 mph - 0.00 in Rain Light Rain
2:33 AM 69.8 °F - 68.0 °F 94% 29.85 in 10.0 mi SW 10.4 mph - 0.01 in Rain , Thunderstorm Light Rain
2:53 AM 70.0 °F - 68.0 °F 93% 29.85 in 9.0 mi WSW 11.5 mph - 0.04 in Rain , Thunderstorm Thunderstorms and Rain
3:35 AM 69.8 °F - 68.0 °F 94% 29.83 in 7.0 mi Calm Calm - 0.05 in Rain Light Rain
3:53 AM 70.0 °F - 68.0 °F 93% 29.80 in 8.0 mi South 6.9 mph - 0.07 in Rain Light Rain
4:07 AM 69.8 °F - 68.0 °F 94% 29.81 in 7.0 mi South 4.6 mph 16.1 mph 0.02 in Rain Rain
4:16 AM 69.8 °F - 68.0 °F 94% 29.80 in 8.0 mi South 8.1 mph - 0.03 in Rain Light Rain
4:43 AM 69.8 °F - 68.0 °F 94% 29.78 in 10.0 mi SE 8.1 mph - 0.04 in Rain Light Rain
4:53 AM 70.0 °F - 68.0 °F 93% 29.78 in 10.0 mi ESE 4.6 mph - 0.05 in Rain Light Rain
5:53 AM 70.0 °F - 68.0 °F 93% 29.82 in 10.0 mi SW 3.5 mph - 0.02 in Rain Light Rain
6:53 AM 70.0 °F - 68.0 °F 93% 29.81 in 10.0 mi Calm Calm - 0.00 in   Clear
7:53 AM 70.0 °F - 68.0 °F 93% 29.82 in 10.0 mi Calm Calm - N/A   Clear
8:53 AM 70.0 °F - 69.1 °F 97% 29.81 in 10.0 mi Calm Calm - N/A   Clear
9:53 AM 73.0 °F - 70.0 °F 90% 29.84 in 10.0 mi South 5.8 mph - N/A   Mostly Cloudy
10:53 AM 75.0 °F - 70.0 °F 84% 29.84 in 10.0 mi Variable 4.6 mph - N/A   Clear
11:53 AM 79.0 °F - 69.1 °F 72% 29.83 in 10.0 mi South 5.8 mph - 0.01 in   Clear
12:53 PM 82.0 °F 84.9 °F 68.0 °F 62% 29.84 in 10.0 mi SW 9.2 mph - N/A   Clear
1:53 PM 84.0 °F 87.0 °F 68.0 °F 58% 29.82 in 10.0 mi WSW 9.2 mph - N/A   Partly Cloudy
2:53 PM 84.9 °F 89.4 °F 70.0 °F 61% 29.82 in 10.0 mi SSW 9.2 mph 16.1 mph N/A   Scattered Clouds
3:53 PM 86.0 °F 90.7 °F 70.0 °F 59% 29.80 in 10.0 mi SW 8.1 mph - N/A   Mostly Cloudy
4:53 PM 86.0 °F 90.7 °F 70.0 °F 59% 29.77 in 10.0 mi WSW 8.1 mph - N/A   Partly Cloudy
5:53 PM 87.1 °F 93.6 °F 72.0 °F 61% 29.78 in 10.0 mi SW 6.9 mph - N/A   Scattered Clouds
6:53 PM 84.9 °F 90.7 °F 72.0 °F 65% 29.79 in 10.0 mi SW 8.1 mph - N/A   Partly Cloudy
7:53 PM 82.0 °F 87.4 °F 73.0 °F 74% 29.80 in 9.0 mi WSW 5.8 mph - N/A   Partly Cloudy
8:53 PM 82.0 °F 87.4 °F 73.0 °F 74% 29.80 in 9.0 mi WSW 4.6 mph - 0.00 in   Partly Cloudy
9:53 PM 81.0 °F 86.2 °F 73.9 °F 79% 29.81 in 8.0 mi Calm Calm - N/A   Mostly Cloudy
10:53 PM 80.1 °F 84.5 °F 73.9 °F 81% 29.81 in 9.0 mi Variable 3.5 mph - N/A   Partly Cloudy
11:53 PM 79.0 °F - 73.9 °F 84% 29.81 in 10.0 mi SW 5.8 mph - N/A   Clear